WEN968 CYYC-CYQR

Flight info

Callsign WEN968
Flight time 1h 15m
Altitude 21000
Route RODEO2/17R VETBI Q991 LIBOS ODGOV ODGOV6
Aircraft DH8D/M-SDE3/C

Departure

Time 2026-04-28 00:31
Airport Calgary International Airport (CYYC)

Arrival

Time 2026-04-28 01:47
Airport Regina International Airport (CYQR)
Time Latitude Longitude Altitude Speed Heading
2026-04-28 00:13 51.12981 -114.01289 3557 ft 0 kts 131°
2026-04-28 00:23 51.12984 -114.01294 3557 ft 2 kts 131°
2026-04-28 00:23 51.12994 -114.01312 3557 ft 2 kts 131°
2026-04-28 00:23 51.13003 -114.01330 3557 ft 2 kts 131°
2026-04-28 00:23 51.13013 -114.01347 3556 ft 2 kts 131°
2026-04-28 00:24 51.13023 -114.01365 3556 ft 2 kts 131°
2026-04-28 00:24 51.13033 -114.01383 3555 ft 2 kts 131°
2026-04-28 00:24 51.13043 -114.01402 3554 ft 2 kts 131°
2026-04-28 00:24 51.13050 -114.01426 3553 ft 1 kts 73°
2026-04-28 00:25 51.13045 -114.01437 3553 ft 2 kts 37°
2026-04-28 00:25 51.13038 -114.01447 3552 ft 0 kts 39°
2026-04-28 00:27 51.13051 -114.01430 3553 ft 4 kts 39°
2026-04-28 00:27 51.13073 -114.01414 3554 ft 2 kts
2026-04-28 00:28 51.13093 -114.01417 3553 ft 3 kts 345°
2026-04-28 00:28 51.13119 -114.01444 3552 ft 5 kts 316°
2026-04-28 00:28 51.13136 -114.01524 3550 ft 8 kts 272°
2026-04-28 00:28 51.13135 -114.01619 3550 ft 8 kts 266°
2026-04-28 00:29 51.13115 -114.01699 3550 ft 7 kts 242°
2026-04-28 00:29 51.13098 -114.01774 3550 ft 7 kts 261°
2026-04-28 00:29 51.13097 -114.01858 3550 ft 7 kts 271°
2026-04-28 00:29 51.13097 -114.01951 3551 ft 9 kts 270°
2026-04-28 00:30 51.13096 -114.02076 3553 ft 12 kts 254°
2026-04-28 00:30 51.12998 -114.02138 3553 ft 24 kts 179°
2026-04-28 00:30 51.12583 -114.02135 3554 ft 99 kts 181°
2026-04-28 00:30 51.11682 -114.02135 3554 ft 159 kts 180°
2026-04-28 00:31 51.10468 -114.02158 3675 ft 185 kts 178°
2026-04-28 00:31 51.09142 -114.02136 4158 ft 196 kts 177°
2026-04-28 00:31 51.07778 -114.02080 4794 ft 202 kts 177°
2026-04-28 00:31 51.06347 -114.02017 5295 ft 209 kts 177°
2026-04-28 00:32 51.04918 -114.01942 5820 ft 216 kts 176°
2026-04-28 00:32 51.02958 -114.01113 6647 ft 217 kts 152°
2026-04-28 00:32 51.02146 -114.00211 7160 ft 214 kts 137°
2026-04-28 00:32 51.01507 -113.98197 7834 ft 210 kts 98°
2026-04-28 00:33 51.01393 -113.95836 8317 ft 221 kts 92°
2026-04-28 00:33 51.01310 -113.93307 8703 ft 236 kts 91°
2026-04-28 00:33 51.01239 -113.90632 9173 ft 246 kts 90°
2026-04-28 00:33 51.01172 -113.87882 9685 ft 254 kts 89°
2026-04-28 00:34 51.01107 -113.85053 10229 ft 261 kts 89°
2026-04-28 00:34 51.01041 -113.82125 10674 ft 270 kts 89°
2026-04-28 00:34 51.00977 -113.79079 10989 ft 279 kts 89°
2026-04-28 00:34 51.00911 -113.75970 11362 ft 285 kts 89°
2026-04-28 00:35 51.00842 -113.72800 11797 ft 287 kts 89°
2026-04-28 00:35 51.00772 -113.69596 12282 ft 288 kts 89°
2026-04-28 00:35 51.00702 -113.66396 12749 ft 289 kts 88°
2026-04-28 00:35 51.00632 -113.63205 13213 ft 289 kts 88°
2026-04-28 00:36 51.00561 -113.59977 13690 ft 289 kts 88°
2026-04-28 00:36 51.00489 -113.56802 14164 ft 289 kts 88°
2026-04-28 00:36 51.00417 -113.53593 14640 ft 288 kts 88°
2026-04-28 00:36 51.00344 -113.50418 15103 ft 288 kts 88°
2026-04-28 00:37 51.00270 -113.47253 15556 ft 287 kts 88°
2026-04-28 00:37 51.00196 -113.44099 16013 ft 286 kts 88°
2026-04-28 00:37 51.00120 -113.40923 16477 ft 285 kts 88°
2026-04-28 00:37 51.00020 -113.36741 17096 ft 283 kts 88°
2026-04-28 00:38 50.99971 -113.34706 17397 ft 281 kts 89°
2026-04-28 00:38 50.99894 -113.31586 17855 ft 278 kts 88°
2026-04-28 00:38 50.99818 -113.28509 18307 ft 275 kts 88°
2026-04-28 00:38 50.99741 -113.25487 18754 ft 271 kts 88°
2026-04-28 00:39 50.99665 -113.22500 19198 ft 266 kts 88°
2026-04-28 00:39 50.99591 -113.19640 19646 ft 260 kts 88°
2026-04-28 00:39 50.99515 -113.16784 20080 ft 253 kts 88°
2026-04-28 00:39 50.99441 -113.13989 20488 ft 248 kts 87°
2026-04-28 00:40 50.99368 -113.11271 20818 ft 246 kts 87°
2026-04-28 00:40 50.99297 -113.08547 20926 ft 253 kts 87°
2026-04-28 00:40 50.99224 -113.05687 20971 ft 262 kts 87°
2026-04-28 00:40 50.99147 -113.02735 20987 ft 272 kts 88°
2026-04-28 00:41 50.99066 -112.99657 20993 ft 283 kts 88°
2026-04-28 00:41 50.98981 -112.96501 20987 ft 291 kts 88°
2026-04-28 00:41 50.98891 -112.93230 20993 ft 299 kts 88°
2026-04-28 00:41 50.98798 -112.89891 20994 ft 307 kts 88°
2026-04-28 00:42 50.98701 -112.86453 20995 ft 314 kts 88°
2026-04-28 00:42 50.98599 -112.82936 20997 ft 320 kts 88°
2026-04-28 00:42 50.98499 -112.79490 20994 ft 324 kts 88°
2026-04-28 00:42 50.98392 -112.75829 20992 ft 328 kts 89°
2026-04-28 00:43 50.98283 -112.72188 20997 ft 331 kts 89°
2026-04-28 00:43 50.98174 -112.68530 20990 ft 335 kts 89°
2026-04-28 00:43 50.98058 -112.64817 21001 ft 337 kts 89°
2026-04-28 00:43 50.97939 -112.61079 20995 ft 339 kts 88°
2026-04-28 00:44 50.97826 -112.57286 20997 ft 341 kts 89°
2026-04-28 00:44 50.97709 -112.53535 20998 ft 342 kts 89°
2026-04-28 00:44 50.97590 -112.49743 21002 ft 344 kts 89°
2026-04-28 00:44 50.97469 -112.45928 21002 ft 344 kts 89°
2026-04-28 00:45 50.97346 -112.42130 21002 ft 345 kts 89°
2026-04-28 00:45 50.97222 -112.38313 21007 ft 346 kts 89°
2026-04-28 00:45 50.97097 -112.34498 21011 ft 347 kts 90°
2026-04-28 00:45 50.96971 -112.30689 21007 ft 347 kts 90°
2026-04-28 00:46 50.96840 -112.26811 21005 ft 347 kts 90°
2026-04-28 00:46 50.96712 -112.23025 21014 ft 347 kts 90°
2026-04-28 00:46 50.96581 -112.19181 21016 ft 347 kts 90°
2026-04-28 00:46 50.96447 -112.15299 21030 ft 347 kts 90°
2026-04-28 00:47 50.96313 -112.11459 21018 ft 347 kts 90°
2026-04-28 00:47 50.96178 -112.07642 21020 ft 348 kts 90°
2026-04-28 00:47 50.96046 -112.03906 21033 ft 348 kts 90°
2026-04-28 00:47 50.95905 -111.99967 21032 ft 348 kts 90°
2026-04-28 00:48 50.95766 -111.96130 21019 ft 348 kts 90°
2026-04-28 00:48 50.95626 -111.92303 21035 ft 349 kts 90°
2026-04-28 00:48 50.95484 -111.88466 21026 ft 349 kts 90°
2026-04-28 00:48 50.95341 -111.84634 21034 ft 349 kts 90°
2026-04-28 00:49 50.95195 -111.80814 21030 ft 349 kts 90°
2026-04-28 00:49 50.95049 -111.76951 21031 ft 349 kts 90°
2026-04-28 00:49 50.94905 -111.73141 21033 ft 349 kts 90°
2026-04-28 00:49 50.94756 -111.69263 21032 ft 349 kts 90°
2026-04-28 00:50 50.94609 -111.65453 21029 ft 349 kts 90°
2026-04-28 00:50 50.94458 -111.61610 21024 ft 349 kts 90°
2026-04-28 00:50 50.94308 -111.57783 21032 ft 348 kts 90°
2026-04-28 00:50 50.94154 -111.53894 21029 ft 348 kts 90°
2026-04-28 00:51 50.93998 -111.50032 21032 ft 348 kts 90°
2026-04-28 00:51 50.93844 -111.46208 21032 ft 349 kts 90°
2026-04-28 00:51 50.93687 -111.42370 21028 ft 349 kts 90°
2026-04-28 00:51 50.93529 -111.38512 21028 ft 349 kts 90°
2026-04-28 00:52 50.93369 -111.34644 21025 ft 349 kts 91°
2026-04-28 00:52 50.93209 -111.30830 21024 ft 349 kts 91°
2026-04-28 00:52 50.93046 -111.26957 21027 ft 350 kts 91°
2026-04-28 00:52 50.92884 -111.23147 21025 ft 350 kts 91°
2026-04-28 00:53 50.92715 -111.19205 21023 ft 350 kts 91°
2026-04-28 00:53 50.92551 -111.15380 21027 ft 350 kts 91°
2026-04-28 00:53 50.92384 -111.11540 21026 ft 350 kts 91°
2026-04-28 00:53 50.92215 -111.07665 21021 ft 349 kts 91°
2026-04-28 00:54 50.92046 -111.03825 21027 ft 349 kts 91°
2026-04-28 00:54 50.91874 -110.99967 21024 ft 349 kts 91°
2026-04-28 00:54 50.91701 -110.96111 21026 ft 350 kts 91°
2026-04-28 00:54 50.91528 -110.92261 21024 ft 349 kts 91°
2026-04-28 00:55 50.91351 -110.88390 21024 ft 349 kts 91°
2026-04-28 00:55 50.91177 -110.84590 21023 ft 350 kts 91°
2026-04-28 00:55 50.90999 -110.80724 21025 ft 350 kts 91°
2026-04-28 00:55 50.90819 -110.76838 21027 ft 350 kts 91°
2026-04-28 00:56 50.90638 -110.72974 21025 ft 350 kts 91°
2026-04-28 00:56 50.90457 -110.69134 21025 ft 350 kts 91°
2026-04-28 00:56 50.90276 -110.65308 21021 ft 350 kts 91°
2026-04-28 00:56 50.90092 -110.61468 21026 ft 350 kts 91°
2026-04-28 00:57 50.89905 -110.57582 21030 ft 350 kts 91°
2026-04-28 00:57 50.89719 -110.53754 21036 ft 349 kts 91°
2026-04-28 00:57 50.89532 -110.49921 21036 ft 349 kts 91°
2026-04-28 00:57 50.89342 -110.46039 21038 ft 349 kts 91°
2026-04-28 00:58 50.89151 -110.42175 21044 ft 349 kts 91°
2026-04-28 00:58 50.88961 -110.38373 21041 ft 349 kts 91°
2026-04-28 00:58 50.88767 -110.34495 21041 ft 350 kts 92°
2026-04-28 00:58 50.88580 -110.30746 21042 ft 349 kts 92°
2026-04-28 00:59 50.88385 -110.26871 21043 ft 349 kts 92°
2026-04-28 00:59 50.88187 -110.23015 21041 ft 350 kts 92°
2026-04-28 00:59 50.87985 -110.19106 21048 ft 350 kts 92°
2026-04-28 00:59 50.87788 -110.15317 21050 ft 350 kts 92°
2026-04-28 01:00 50.87587 -110.11464 21049 ft 349 kts 92°
2026-04-28 01:00 50.87384 -110.07604 21050 ft 350 kts 92°
2026-04-28 01:00 50.87184 -110.03803 21049 ft 350 kts 92°
2026-04-28 01:00 50.86986 -110.00071 21058 ft 350 kts 92°
2026-04-28 01:01 50.86773 -109.96089 21053 ft 350 kts 92°
2026-04-28 01:01 50.86565 -109.92244 21047 ft 350 kts 92°
2026-04-28 01:01 50.86357 -109.88380 21054 ft 350 kts 92°
2026-04-28 01:01 50.86147 -109.84525 21056 ft 350 kts 92°
2026-04-28 01:02 50.85935 -109.80668 21051 ft 350 kts 92°
2026-04-28 01:02 50.85654 -109.75576 21055 ft 351 kts 92°
2026-04-28 01:02 50.85511 -109.73000 21056 ft 351 kts 92°
2026-04-28 01:02 50.85297 -109.69143 21056 ft 351 kts 92°
2026-04-28 01:03 50.85080 -109.65276 21052 ft 351 kts 92°
2026-04-28 01:03 50.84862 -109.61427 21056 ft 351 kts 92°
2026-04-28 01:03 50.84641 -109.57529 21056 ft 351 kts 92°
2026-04-28 01:03 50.84426 -109.53760 21050 ft 351 kts 92°
2026-04-28 01:04 50.84199 -109.49812 21057 ft 351 kts 92°
2026-04-28 01:04 50.83979 -109.46007 21065 ft 351 kts 92°
2026-04-28 01:04 50.83755 -109.42141 21071 ft 351 kts 92°
2026-04-28 01:04 50.83530 -109.38287 21063 ft 351 kts 92°
2026-04-28 01:05 50.83303 -109.34433 21073 ft 352 kts 93°
2026-04-28 01:05 50.83073 -109.30557 21073 ft 352 kts 93°
2026-04-28 01:05 50.82841 -109.26646 21077 ft 352 kts 93°
2026-04-28 01:05 50.82607 -109.22739 21074 ft 351 kts 93°
2026-04-28 01:06 50.82376 -109.18870 21074 ft 351 kts 93°
2026-04-28 01:06 50.82144 -109.15034 21078 ft 352 kts 93°
2026-04-28 01:06 50.81907 -109.11146 21079 ft 352 kts 93°
2026-04-28 01:06 50.81673 -109.07319 21079 ft 352 kts 93°
2026-04-28 01:07 50.81435 -109.03458 21076 ft 352 kts 93°
2026-04-28 01:07 50.81194 -108.99553 21078 ft 353 kts 93°
2026-04-28 01:07 50.80993 -108.95626 21078 ft 352 kts 91°
2026-04-28 01:07 50.80828 -108.91787 21086 ft 352 kts 91°
2026-04-28 01:08 50.80661 -108.87936 21083 ft 352 kts 91°
2026-04-28 01:08 50.80490 -108.84074 21086 ft 352 kts 91°
2026-04-28 01:08 50.80317 -108.80223 21084 ft 353 kts 91°
2026-04-28 01:08 50.80139 -108.76304 21086 ft 352 kts 91°
2026-04-28 01:09 50.79960 -108.72435 21089 ft 353 kts 91°
2026-04-28 01:09 50.79780 -108.68556 21089 ft 353 kts 91°
2026-04-28 01:09 50.79597 -108.64650 21094 ft 353 kts 91°
2026-04-28 01:09 50.79415 -108.60798 21101 ft 353 kts 91°
2026-04-28 01:10 50.79229 -108.56916 21103 ft 353 kts 91°
2026-04-28 01:10 50.79042 -108.53038 21103 ft 353 kts 91°
2026-04-28 01:10 50.78852 -108.49101 21103 ft 353 kts 91°
2026-04-28 01:10 50.78665 -108.45254 21102 ft 353 kts 91°
2026-04-28 01:11 50.78472 -108.41336 21106 ft 353 kts 91°
2026-04-28 01:11 50.78282 -108.37499 21106 ft 354 kts 91°
2026-04-28 01:11 50.78085 -108.33553 21106 ft 354 kts 92°
2026-04-28 01:11 50.77890 -108.29675 21107 ft 354 kts 92°
2026-04-28 01:12 50.77693 -108.25760 21106 ft 354 kts 92°
2026-04-28 01:12 50.77496 -108.21886 21109 ft 354 kts 92°
2026-04-28 01:12 50.77298 -108.18024 21108 ft 354 kts 92°
2026-04-28 01:12 50.77098 -108.14139 21103 ft 354 kts 92°
2026-04-28 01:13 50.76894 -108.10220 21102 ft 355 kts 92°
2026-04-28 01:13 50.76487 -108.02458 21103 ft 355 kts 92°
2026-04-28 01:13 50.76279 -107.98518 21093 ft 355 kts 92°
2026-04-28 01:14 50.76073 -107.94665 21096 ft 355 kts 92°
2026-04-28 01:14 50.75865 -107.90794 21092 ft 355 kts 92°
2026-04-28 01:14 50.75652 -107.86824 21082 ft 355 kts 92°
2026-04-28 01:14 50.75442 -107.82966 21084 ft 355 kts 92°
2026-04-28 01:15 50.75229 -107.79050 21085 ft 355 kts 92°
2026-04-28 01:15 50.75015 -107.75169 21084 ft 356 kts 92°
2026-04-28 01:15 50.74798 -107.71240 21071 ft 356 kts 92°
2026-04-28 01:15 50.74581 -107.67344 21076 ft 356 kts 92°
2026-04-28 01:16 50.74363 -107.63447 21081 ft 356 kts 92°
2026-04-28 01:16 50.74144 -107.59554 21078 ft 356 kts 92°
2026-04-28 01:16 50.73922 -107.55630 21072 ft 355 kts 92°
2026-04-28 01:16 50.73700 -107.51738 21080 ft 355 kts 93°
2026-04-28 01:17 50.73476 -107.47849 21073 ft 356 kts 93°
2026-04-28 01:17 50.73251 -107.43936 21080 ft 356 kts 93°
2026-04-28 01:17 50.73026 -107.40060 21083 ft 355 kts 93°
2026-04-28 01:17 50.72798 -107.36159 21086 ft 356 kts 93°
2026-04-28 01:18 50.72568 -107.32236 21088 ft 356 kts 94°
2026-04-28 01:18 50.72337 -107.28322 21092 ft 356 kts 94°
2026-04-28 01:18 50.72107 -107.24442 21090 ft 355 kts 94°
2026-04-28 01:18 50.71875 -107.20548 21089 ft 355 kts 94°
2026-04-28 01:19 50.71639 -107.16630 21090 ft 356 kts 94°
2026-04-28 01:19 50.71406 -107.12772 21087 ft 356 kts 94°
2026-04-28 01:19 50.71167 -107.08819 21085 ft 356 kts 94°
2026-04-28 01:19 50.70930 -107.04942 21086 ft 356 kts 94°
2026-04-28 01:20 50.70690 -107.01038 21078 ft 356 kts 94°
2026-04-28 01:20 50.70451 -106.97169 21071 ft 357 kts 94°
2026-04-28 01:20 50.70208 -106.93253 21078 ft 356 kts 94°
2026-04-28 01:20 50.69964 -106.89347 21083 ft 356 kts 94°
2026-04-28 01:21 50.69719 -106.85436 21083 ft 356 kts 94°
2026-04-28 01:21 50.69474 -106.81563 21083 ft 356 kts 94°
2026-04-28 01:21 50.69227 -106.77657 21093 ft 356 kts 94°
2026-04-28 01:21 50.68978 -106.73746 21096 ft 355 kts 94°
2026-04-28 01:22 50.68726 -106.69823 21094 ft 355 kts 94°
2026-04-28 01:22 50.68475 -106.65936 21089 ft 356 kts 94°
2026-04-28 01:22 50.68227 -106.62092 21091 ft 355 kts 94°
2026-04-28 01:22 50.67971 -106.58161 21087 ft 355 kts 94°
2026-04-28 01:23 50.67715 -106.54263 21100 ft 356 kts 94°
2026-04-28 01:23 50.67459 -106.50369 21088 ft 356 kts 94°
2026-04-28 01:23 50.67199 -106.46446 21087 ft 356 kts 94°
2026-04-28 01:23 50.66942 -106.42568 21085 ft 356 kts 94°
2026-04-28 01:24 50.66679 -106.38651 20795 ft 357 kts 94°
2026-04-28 01:24 50.66424 -106.34826 20470 ft 354 kts 95°
2026-04-28 01:24 50.66163 -106.30918 20111 ft 352 kts 95°
2026-04-28 01:24 50.65905 -106.27102 19777 ft 350 kts 95°
2026-04-28 01:25 50.65643 -106.23244 19431 ft 349 kts 95°
2026-04-28 01:25 50.65384 -106.19444 19061 ft 347 kts 95°
2026-04-28 01:25 50.65123 -106.15640 18739 ft 345 kts 95°
2026-04-28 01:25 50.64864 -106.11897 18372 ft 344 kts 95°
2026-04-28 01:26 50.64601 -106.08127 17994 ft 345 kts 95°
2026-04-28 01:26 50.64340 -106.04384 17601 ft 339 kts 95°
2026-04-28 01:26 50.64085 -106.00710 17237 ft 330 kts 95°
2026-04-28 01:26 50.63836 -105.97154 16910 ft 323 kts 95°
2026-04-28 01:27 50.63592 -105.93694 16587 ft 318 kts 95°
2026-04-28 01:27 50.63349 -105.90266 16285 ft 313 kts 95°
2026-04-28 01:27 50.63105 -105.86842 15964 ft 308 kts 95°
2026-04-28 01:27 50.62865 -105.83482 15659 ft 304 kts 95°
2026-04-28 01:28 50.62629 -105.80206 15363 ft 300 kts 95°
2026-04-28 01:28 50.62396 -105.76975 15053 ft 297 kts 95°
2026-04-28 01:28 50.62157 -105.73677 14768 ft 295 kts 95°
2026-04-28 01:28 50.61923 -105.70491 14482 ft 298 kts 95°
2026-04-28 01:29 50.61682 -105.67211 14181 ft 300 kts 94°
2026-04-28 01:29 50.61441 -105.63947 13876 ft 302 kts 95°
2026-04-28 01:29 50.61196 -105.60633 13570 ft 303 kts 95°
2026-04-28 01:29 50.60948 -105.57290 13269 ft 304 kts 94°
2026-04-28 01:30 50.60702 -105.53989 12965 ft 305 kts 95°
2026-04-28 01:30 50.60455 -105.50686 12654 ft 305 kts 95°
2026-04-28 01:30 50.60208 -105.47383 12355 ft 304 kts 95°
2026-04-28 01:30 50.59951 -105.44054 12047 ft 301 kts 96°
2026-04-28 01:31 50.59374 -105.40907 11808 ft 299 kts 111°
2026-04-28 01:31 50.58553 -105.37971 11569 ft 296 kts 112°
2026-04-28 01:31 50.57714 -105.35022 11325 ft 291 kts 112°
2026-04-28 01:31 50.56884 -105.32109 11106 ft 286 kts 113°
2026-04-28 01:32 50.56082 -105.29288 10877 ft 282 kts 113°
2026-04-28 01:32 50.55278 -105.26458 10659 ft 278 kts 112°
2026-04-28 01:32 50.54491 -105.23683 10451 ft 275 kts 112°
2026-04-28 01:32 50.53718 -105.20961 10236 ft 272 kts 112°
2026-04-28 01:33 50.52943 -105.18229 10020 ft 270 kts 112°
2026-04-28 01:33 50.52180 -105.15537 9806 ft 267 kts 112°
2026-04-28 01:33 50.51417 -105.12847 9592 ft 265 kts 112°
2026-04-28 01:33 50.50671 -105.10223 9387 ft 263 kts 112°
2026-04-28 01:34 50.49927 -105.07606 9184 ft 262 kts 112°
2026-04-28 01:34 50.49187 -105.05002 8978 ft 262 kts 112°
2026-04-28 01:34 50.48438 -105.02375 8783 ft 263 kts 113°
2026-04-28 01:34 50.47692 -104.99762 8577 ft 265 kts 113°
2026-04-28 01:35 50.46921 -104.97060 8368 ft 267 kts 113°
2026-04-28 01:35 50.46176 -104.94451 8157 ft 266 kts 113°
2026-04-28 01:35 50.45430 -104.91843 7949 ft 264 kts 113°
2026-04-28 01:35 50.44667 -104.89175 7750 ft 264 kts 113°
2026-04-28 01:36 50.43906 -104.86520 7536 ft 263 kts 113°
2026-04-28 01:36 50.43157 -104.83946 7332 ft 262 kts 116°
2026-04-28 01:36 50.42043 -104.81683 7133 ft 257 kts 136°
2026-04-28 01:36 50.40723 -104.79845 6934 ft 251 kts 138°
2026-04-28 01:37 50.39420 -104.78059 6729 ft 244 kts 138°
2026-04-28 01:37 50.38165 -104.76341 6547 ft 238 kts 138°
2026-04-28 01:37 50.36919 -104.74633 6360 ft 231 kts 138°
2026-04-28 01:37 50.35734 -104.73008 6179 ft 224 kts 138°
2026-04-28 01:38 50.34576 -104.71419 6007 ft 218 kts 138°
2026-04-28 01:38 50.33451 -104.69865 5817 ft 214 kts 137°
2026-04-28 01:38 50.32325 -104.68286 5586 ft 214 kts 137°
2026-04-28 01:38 50.31218 -104.66732 5352 ft 214 kts 137°
2026-04-28 01:39 50.30111 -104.65177 5120 ft 214 kts 137°
2026-04-28 01:39 50.28999 -104.63615 4888 ft 213 kts 137°
2026-04-28 01:39 50.27896 -104.62067 4660 ft 212 kts 136°
2026-04-28 01:39 50.26807 -104.60538 4429 ft 208 kts 136°
2026-04-28 01:40 50.25739 -104.59036 4203 ft 202 kts 136°
2026-04-28 01:40 50.24720 -104.57603 3986 ft 189 kts 136°
2026-04-28 01:40 50.23806 -104.56280 3858 ft 173 kts 129°
2026-04-28 01:40 50.23423 -104.54513 3737 ft 179 kts 80°
2026-04-28 01:41 50.24038 -104.52945 3757 ft 165 kts 37°
2026-04-28 01:41 50.24980 -104.51952 3798 ft 167 kts 31°
2026-04-28 01:41 50.26001 -104.50989 3780 ft 167 kts 28°
2026-04-28 01:41 50.27000 -104.50121 3776 ft 162 kts 27°
2026-04-28 01:42 50.27981 -104.49307 3770 ft 156 kts 26°
2026-04-28 01:42 50.28930 -104.48543 3770 ft 150 kts 25°
2026-04-28 01:42 50.29910 -104.48138 3750 ft 145 kts 349°
2026-04-28 01:42 50.30829 -104.48923 3784 ft 153 kts 324°
2026-04-28 01:43 50.31636 -104.49958 3745 ft 148 kts 322°
2026-04-28 01:43 50.32413 -104.50993 3738 ft 140 kts 321°
2026-04-28 01:43 50.33152 -104.51985 3677 ft 142 kts 322°
2026-04-28 01:43 50.33925 -104.53022 3604 ft 147 kts 321°
2026-04-28 01:44 50.34697 -104.54077 3527 ft 147 kts 320°
2026-04-28 01:44 50.35464 -104.55136 3453 ft 145 kts 321°
2026-04-28 01:44 50.36224 -104.56190 3381 ft 144 kts 321°
2026-04-28 01:44 50.36974 -104.57231 3313 ft 144 kts 321°
2026-04-28 01:45 50.37731 -104.58286 3204 ft 146 kts 320°
2026-04-28 01:45 50.38495 -104.59357 2979 ft 147 kts 319°
2026-04-28 01:45 50.39263 -104.60425 2755 ft 146 kts 319°
2026-04-28 01:45 50.40007 -104.61503 2550 ft 145 kts 317°
2026-04-28 01:46 50.40752 -104.62598 2342 ft 144 kts 316°
2026-04-28 01:46 50.41485 -104.63649 2211 ft 139 kts 317°
2026-04-28 01:46 50.42199 -104.64657 1972 ft 135 kts 315°
2026-04-28 01:46 50.42852 -104.65584 1897 ft 118 kts 316°
2026-04-28 01:47 50.43325 -104.66257 1893 ft 29 kts 321°
2026-04-28 01:47 50.43396 -104.66335 1893 ft 10 kts 359°
2026-04-28 01:47 50.43471 -104.66234 1893 ft 13 kts 54°
2026-04-28 01:47 50.43500 -104.66141 1893 ft 8 kts 95°
2026-04-28 01:48 50.43459 -104.66077 1893 ft 8 kts 142°
2026-04-28 01:48 50.43417 -104.66020 1893 ft 8 kts 139°
2026-04-28 01:48 50.43376 -104.65962 1893 ft 7 kts 136°
2026-04-28 01:48 50.43336 -104.65903 1893 ft 7 kts 136°
2026-04-28 01:49 50.43303 -104.65855 1893 ft 5 kts 138°
2026-04-28 01:49 50.43273 -104.65815 1893 ft 5 kts 138°
2026-04-28 01:49 50.43254 -104.65766 1893 ft 5 kts 85°
2026-04-28 01:49 50.43273 -104.65723 1893 ft 4 kts 51°
2026-04-28 01:50 50.43295 -104.65682 1893 ft 5 kts 46°
2026-04-28 01:50 50.43308 -104.65662 1893 ft 0 kts 46°